Waarnemingen

Advertentie
Mijn weer
Mierkenis, Zweden (2121): temperatuur & dauwpunt: 10.01.2018 10:00:00 - 16.01.2018 10:00:00 (CET)Mierkenis, Zweden (2121): windsnelheid & windstoten: 10.01.2018 10:00:00 - 16.01.2018 10:00:00 (CET)Mierkenis, Zweden (2121): windrichting: 10.01.2018 10:00:00 - 16.01.2018 10:00:00 (CET)Mierkenis, Zweden (2121): luchtdruk: 10.01.2018 10:00:00 - 16.01.2018 10:00:00 (CET)Mierkenis, Zweden (2121): zicht: 10.01.2018 10:00:00 - 16.01.2018 10:00:00 (CET)Mierkenis, Zweden (2121): neerslag: 10.01.2018 10:00:00 - 16.01.2018 10:00:00 (CET)
Datum & Tijd tt [°C] td [°C] ff [km/u] ff [kn] fx [km/u] fx [kn] dd ppp [hPa] vv [km] rr [mm]
16.01.2018 10:00:00 - - - - - - - - - -
16.01.2018 09:00:00 -6,5 -7,9 57 31 84 45 ZO 988,6 0,2 0,1
16.01.2018 08:00:00 -6,4 -7,3 37 20 68 37 ZO 989,5 0,4 0,4
16.01.2018 07:00:00 -5,6 -6,4 44 24 81 44 ZO 989,1 0,2 0,2
16.01.2018 06:00:00 -5,6 -6,7 52 28 81 44 OZO 989,7 0,2 0,1
16.01.2018 05:00:00 -5,9 -7,0 41 22 74 40 OZO 990,5 0,3 0,1
16.01.2018 04:00:00 -5,8 -7,2 41 22 67 36 OZO 991,7 0,6 0,0
16.01.2018 03:00:00 -6,1 -7,3 31 17 66 36 OZO 993,2 0,7 0,3
16.01.2018 02:00:00 -6,3 -7,2 23 12 71 38 OZO 994,0 0,6 0,3
16.01.2018 01:00:00 -6,3 -7,8 31 17 74 40 OZO 995,5 1,0 0,1
16.01.2018 00:00:00 -6,5 -8,8 42 23 74 40 ZO 995,0 1,4 0,0
15.01.2018 23:00:00 -6,6 -9,0 44 24 72 39 OZO 995,9 1,1 0,0
15.01.2018 22:00:00 -6,5 -9,2 40 22 78 42 OZO 997,0 1,3 0,0
15.01.2018 21:00:00 -6,5 -8,9 43 23 78 42 OZO 997,2 0,8 0,0
15.01.2018 20:00:00 -6,7 -9,3 41 22 67 36 OZO 997,0 1,4 0,0
15.01.2018 19:00:00 -7,3 -9,7 29 16 61 33 OZO 999,2 2,1 0,0
15.01.2018 18:00:00 -7,5 -9,9 25 14 68 37 OZO 1000,7 1,3 0,0
15.01.2018 17:00:00 -8,1 -10,8 42 23 75 41 OZO 1000,1 1,7 0,0
15.01.2018 16:00:00 -8,3 -11,3 45 25 75 41 O 1001,7 1,1 0,0
15.01.2018 15:00:00 -8,5 -11,6 47 25 70 38 OZO 1002,1 0,9 0,0
15.01.2018 14:00:00 -8,6 -11,6 42 23 66 36 OZO 1003,0 0,9 0,0
15.01.2018 13:00:00 -8,4 -11,1 37 20 72 39 OZO 1003,9 1,0 0,1
15.01.2018 12:00:00 -8,1 -10,5 33 18 72 39 OZO 1004,6 3,1 0,0
15.01.2018 11:00:00 -7,7 -10,4 37 20 67 36 OZO 1004,2 1,5 0,0
15.01.2018 10:00:00 -7,8 -10,5 38 21 66 35 OZO 1004,4 2,6 0,1
15.01.2018 09:00:00 -7,8 -10,6 29 16 68 37 OZO 1006,0 2,2 0,0
15.01.2018 08:00:00 -8,2 -11,2 35 19 68 37 ZO 1005,9 3,6 0,0
15.01.2018 07:00:00 -8,1 -10,8 43 23 68 37 ZO 1005,7 2,1 0,0
15.01.2018 06:00:00 -8,2 -11,0 46 25 68 37 ZO 1006,4 2,0 0,0
15.01.2018 05:00:00 -8,9 -10,8 38 21 56 31 ZO 1007,1 2,0 0,1
15.01.2018 04:00:00 -9,3 -10,8 26 14 55 30 ZO 1008,3 2,9 0,0
15.01.2018 03:00:00 -9,7 -11,0 38 21 55 30 ZO 1008,7 1,8 0,0
15.01.2018 02:00:00 -10,1 -11,4 35 19 53 29 ZO 1010,1 1,4 0,1
15.01.2018 01:00:00 -10,5 -11,8 28 15 46 25 ZO 1011,6 2,9 0,0
15.01.2018 00:00:00 -10,8 -12,1 14 7 39 21 OZO 1013,1 4,6 0,0
14.01.2018 23:00:00 -11,5 -12,9 15 8 39 21 ONO 1014,2 4,8 0,0
14.01.2018 22:00:00 -12,9 -14,5 23 13 39 21 O 1015,1 6 0,0
14.01.2018 21:00:00 -14,7 -16,4 5 3 35 19 WZW 1017,0 1,9 0,0
14.01.2018 20:00:00 -15,1 -16,9 11 6 28 15 OZO 1017,9 1,6 0,0
14.01.2018 19:00:00 -21,9 -24,1 14 8 22 12 ZZO 1019,8 2,8 0,0
14.01.2018 18:00:00 -24,9 -27,5 2 1 13 7 ZO 1022,1 2,9 0,0
14.01.2018 17:00:00 -24,5 -27,1 3 2 14 8 WNW 1023,0 9 0,0
14.01.2018 16:00:00 -24,1 -26,7 5 3 19 10 ZZO 1023,8 22 0,0
14.01.2018 15:00:00 -22,1 -24,5 14 7 27 15 ZZO 1024,2 44 0,0
14.01.2018 14:00:00 -20,7 -23,0 8 4 29 16 ZZO 1024,6 45 0,0
14.01.2018 13:00:00 -20,0 -22,3 16 9 30 16 OZO 1025,3 25 0,0
14.01.2018 12:00:00 -19,5 -21,6 16 9 31 17 OZO 1025,8 8 0,0
14.01.2018 11:00:00 -19,2 -21,4 19 10 31 17 ZO 1026,1 6 0,0
14.01.2018 10:00:00 -19,6 -21,7 14 7 30 16 ZO 1026,6 3,3 0,0
14.01.2018 09:00:00 -19,9 -22,0 16 9 29 16 ZZO 1027,0 2,1 0,0
14.01.2018 08:00:00 -19,8 -21,9 10 6 22 12 ZZO 1027,3 3,0 0,0
14.01.2018 07:00:00 -19,8 -21,9 14 8 27 15 ZZO 1027,8 12 0,0
14.01.2018 06:00:00 -19,8 -21,9 10 6 27 15 ZZO 1028,3 9 0,0
14.01.2018 05:00:00 -18,8 -21,0 11 6 18 10 ZO 1028,4 3,0 0,0
14.01.2018 04:00:00 -17,7 -19,8 8 4 16 9 ZO 1028,8 1,8 0,0
14.01.2018 03:00:00 -16,8 -18,7 8 4 15 8 ZZO 1029,5 2,2 0,0
14.01.2018 02:00:00 -16,1 -17,9 8 4 17 9 ZO 1029,8 2,0 0,0
14.01.2018 01:00:00 -15,8 -17,6 6 4 17 9 OZO 1030,5 2,8 0,0
14.01.2018 00:00:00 -14,9 -16,7 5 3 14 8 ZO 1030,8 0,7 0,0
13.01.2018 23:00:00 -14,8 -16,5 7 4 14 8 ZO 1031,5 1,0 0,0
13.01.2018 22:00:00 -14,5 -16,2 3 2 7 4 NNW 1031,7 0,4 0,0
13.01.2018 21:00:00 -14,3 -16,0 2 1 7 4 ZW 1032,0 1,7 0,0
13.01.2018 20:00:00 -14,2 -15,9 4 2 7 4 OZO 1032,9 1,0 0,0
13.01.2018 19:00:00 -13,5 -15,1 0 0 4 2 N 1032,9 0,3 0,0
13.01.2018 18:00:00 -13,0 -14,6 2 1 10 5 O 1033,3 0,2 0,0
13.01.2018 17:00:00 -13,0 -14,6 2 1 10 5 ZO 1033,5 0,4 0,0
13.01.2018 16:00:00 -12,9 -14,2 6 3 10 5 OZO 1033,3 0,2 0,0
13.01.2018 15:00:00 -12,6 -14,0 2 1 9 5 ZW 1033,5 0,4 0,0
13.01.2018 14:00:00 -13,1 -14,7 5 3 9 5 NNW 1034,1 4,0 0,0
13.01.2018 13:00:00 -13,1 -14,5 0 0 9 5 N 1034,7 0,3 0,0
13.01.2018 12:00:00 -13,5 -15,1 2 1 9 5 NNW 1035,0 0,4 0,0
13.01.2018 11:00:00 -13,9 -15,5 3 2 9 5 NW 1035,5 0,3 0,0
13.01.2018 10:00:00 -14,8 -16,5 6 3 11 6 NW 1035,8 1,6 0,0
13.01.2018 09:00:00 -15,6 -17,4 4 2 14 7 NW 1036,2 38 0,0
13.01.2018 08:00:00 -14,8 -16,6 5 3 14 7 WNW 1036,1 12 0,0
13.01.2018 07:00:00 -14,1 -15,7 3 2 11 6 WNW 1036,2 0,5 0,0
13.01.2018 06:00:00 -16,0 -17,7 4 2 11 6 WNW 1036,5 9 0,0
13.01.2018 05:00:00 -15,8 -17,3 5 3 13 7 NW 1036,8 6 0,0
13.01.2018 04:00:00 -16,7 -18,4 6 4 13 7 NW 1037,5 50 0,0
13.01.2018 03:00:00 -17,8 -19,7 5 3 13 7 NW 1037,9 50 0,0
13.01.2018 02:00:00 -15,3 -16,8 8 4 14 8 NW 1037,5 50 0,0
13.01.2018 01:00:00 -15,1 -16,6 9 5 14 8 NW 1037,6 50 0,0
13.01.2018 00:00:00 -14,9 -16,7 9 5 14 8 NW 1037,9 50 0,0
12.01.2018 23:00:00 -14,3 -15,7 7 4 14 8 NW 1037,7 50 0,0
12.01.2018 22:00:00 -13,5 -14,9 0 0 14 8 N 1037,7 50 0,0
12.01.2018 21:00:00 -12,8 -14,1 10 6 14 8 NW 1037,1 50 0,0
12.01.2018 20:00:00 -11,2 -12,2 4 2 13 7 NNW 1036,8 50 0,0
12.01.2018 19:00:00 -8,8 -9,5 9 5 13 7 NW 1036,3 50 0,0
12.01.2018 18:00:00 -7,8 -8,7 4 2 13 7 ZZO 1035,7 50 0,0
12.01.2018 17:00:00 -6,0 -7,1 4 2 13 7 W 1035,2 50 0,0
12.01.2018 16:00:00 -3,3 -4,6 5 3 10 6 N 1034,7 50 0,0
12.01.2018 15:00:00 -3,9 -5,4 0 0 11 6 N 1034,5 50 0,0
12.01.2018 14:00:00 -5,0 -6,7 4 2 11 6 NO 1034,3 50 0,0
12.01.2018 13:00:00 -3,7 -5,4 4 2 14 7 ZZW 1033,6 50 0,0
12.01.2018 12:00:00 -5,4 -6,8 3 2 16 8 O 1033,4 50 0,0
12.01.2018 11:00:00 -4,8 -6,2 6 3 18 10 NNW 1032,8 50 0,0
12.01.2018 10:00:00 -3,4 -6,2 11 6 21 11 NW 1031,8 50 0,0
12.01.2018 09:00:00 -4,1 -7,2 8 4 16 9 ZW 1031,5 50 0,0
12.01.2018 08:00:00 -6,0 -8,7 4 2 16 9 N 1031,2 50 0,0
12.01.2018 07:00:00 -7,7 -10,2 3 1 10 5 W 1031,1 50 0,0
12.01.2018 06:00:00 -10,1 -12,7 0 0 13 7 N 1031,0 50 0,0
12.01.2018 05:00:00 -10,3 -12,2 3 2 16 9 W 1030,9 50 0,0
12.01.2018 04:00:00 -11,7 -14,5 3 2 16 9 ZO 1030,7 50 0,0
12.01.2018 03:00:00 -7,9 -10,7 5 3 16 9 ZW 1029,7 50 0,1
12.01.2018 02:00:00 -10,1 -11,6 8 4 21 11 NNW 1029,6 50 0,0
12.01.2018 01:00:00 -10,8 -13,0 5 3 21 11 WZW 1029,5 50 0,0
12.01.2018 00:00:00 -11,5 -13,2 8 5 17 9 NW 1029,4 50 0,0
11.01.2018 23:00:00 -13,4 -15,7 2 1 17 9 ZW 1029,6 50 0,0
11.01.2018 22:00:00 -13,0 -15,3 7 4 15 8 Z 1029,4 50 0,0
11.01.2018 21:00:00 -15,9 -18,0 3 2 13 7 ONO 1029,1 50 0,0
11.01.2018 20:00:00 -13,9 -15,7 5 3 13 7 NW 1028,1 50 0,0
11.01.2018 19:00:00 -15,3 -17,2 4 2 11 6 NW 1028,3 50 0,0
11.01.2018 18:00:00 -14,6 -16,7 5 3 10 5 NW 1028,1 50 0,0
11.01.2018 17:00:00 -15,0 -17,0 5 3 19 10 NW 1027,9 50 0,0
11.01.2018 16:00:00 -14,5 -16,7 9 5 19 10 NW 1027,7 50 0,0
11.01.2018 15:00:00 -16,8 -19,0 10 5 17 9 WNW 1027,5 50 0,0
11.01.2018 14:00:00 -17,6 -19,8 5 3 16 9 W 1027,9 50 0,0
11.01.2018 13:00:00 -18,6 -20,5 6 3 16 9 NW 1027,6 50 0,0
11.01.2018 12:00:00 -19,8 -21,8 8 4 16 8 WNW 1027,7 50 0,0
11.01.2018 11:00:00 -21,9 -24,6 8 4 16 8 NW 1028,1 50 0,0
11.01.2018 10:00:00 -22,1 -24,3 7 4 13 7 NNW 1028,0 50 0,0
11.01.2018 09:00:00 -22,7 -24,9 4 2 13 7 WNW 1027,6 50 0,0
11.01.2018 08:00:00 -22,1 -24,5 3 2 13 7 NNW 1027,1 50 0,0
11.01.2018 07:00:00 -22,2 -24,7 8 5 14 7 WNW 1026,7 50 0,0
11.01.2018 06:00:00 -22,6 -25,0 10 5 14 7 NW 1026,8 50 0,0
11.01.2018 05:00:00 -22,0 -24,5 10 5 14 7 NW 1026,9 50 0,0
11.01.2018 04:00:00 -22,4 -24,8 7 4 12 7 WNW 1026,9 50 0,0
11.01.2018 03:00:00 -22,3 -24,7 9 5 12 6 NW 1027,0 50 0,0
11.01.2018 02:00:00 -20,9 -23,2 6 4 11 6 NW 1026,7 50 0,0
11.01.2018 01:00:00 -21,5 -23,8 4 2 11 6 WNW 1026,7 50 0,0
11.01.2018 00:00:00 -21,2 -23,5 5 3 13 7 NW 1026,4 50 0,0
10.01.2018 23:00:00 -21,0 -23,3 6 4 13 7 NW 1026,1 50 0,0
10.01.2018 22:00:00 -20,8 -23,1 6 3 13 7 NW 1025,9 50 0,0
10.01.2018 21:00:00 -22,5 -24,9 7 4 12 7 WNW 1026,3 50 0,0
10.01.2018 20:00:00 -20,9 -23,2 4 2 16 9 NW 1026,0 50 0,0
10.01.2018 19:00:00 -21,4 -23,9 13 7 16 9 NNW 1025,7 50 0,0
10.01.2018 18:00:00 -21,5 -23,7 7 4 14 8 WNW 1026,0 50 0,0
10.01.2018 17:00:00 -21,0 -23,1 8 5 14 8 NW 1026,3 50 0,0
10.01.2018 16:00:00 -20,6 -22,7 8 4 12 7 WNW 1026,3 30 0,0
10.01.2018 15:00:00 -20,6 -22,7 10 6 14 7 NW 1026,2 50 0,0
10.01.2018 14:00:00 -19,8 -21,8 5 3 14 7 WNW 1026,1 44 0,0
10.01.2018 13:00:00 -20,2 -22,6 7 4 14 8 NW 1026,2 50 0,0
10.01.2018 12:00:00 -19,1 -21,3 8 5 15 8 NW 1026,0 50 0,0
10.01.2018 11:00:00 -19,2 -22,1 9 5 16 9 WNW 1026,0 50 0,0
10.01.2018 10:00:00 -19,9 -22,3 8 4 16 9 WNW 1026,3 50 0,0

tt = temperatuur
td = dauwpunt
ff = windsnelheid
fx = windstoten
dd = windrichting
ppp = luchtdruk
vv = zicht
rr = neerslag

Weerstations in de omgeving